Regional Weather Roundup
Issued by NWS

Home | Current Version | Previous Version | Text Only | Print | Product List | Glossary Off
Versions: 1 2 3 4 5 6 7 8 9 10 11 12 13 14 15 16 17 18 19 20 21 22 23 24 25 26 27 28 29 30 31 32 33 34 35 36 37 38 39 40 41 42 43 44 45 46 47 48 49 50

111
ASUS43 KFSD 190902
RWRSD

WEATHER ROUNDUP FOR SOUTH DAKOTA
NATIONAL WEATHER SERVICE SIOUX FALLS SD
300 AM CST MON FEB 19 2018

NOTE: "FAIR" INDICATES FEW OR NO CLOUDS BELOW 12,000 FEET WITH NO
SIGNIFICANT WEATHER AND/OR OBSTRUCTIONS TO VISIBILITY.


SDZ001>005-009-010-012>017-191000-
NORTHWEST AND NORTH CENTRAL SOUTH DAKOTA

CITY           SKY/WX    TMP DP  RH WIND       PRES   REMARKS
BUFFALO          N/A      4  -2  76 NE10      29.91F WCI -11
FAITH            N/A      4   1  88 N18       30.02R WCI -16
MOBRIDGE       CLOUDY     9   2  73 N16       30.00S WCI  -8
$$

SDZ012>016-024>037-041>051-057-063-072>074-191000-
SOUTHWEST AND SOUTH CENTRAL SOUTH DAKOTA

CITY           SKY/WX    TMP DP  RH WIND       PRES   REMARKS
RAPID CTY ARPT LGT SNOW   2  -2  83 N20       29.97R VSB 3/4 WCI -19
PIERRE         LGT SNOW   8   5  87 N18       30.01R FOG     WCI -11
CUSTER         LGT SNOW   3  -2  79 NE3       29.69F VSB 1
ELLSWORTH AFB  MOCLDY     3   0  87 N18G25    29.95  BLWGSNOWWCI -17
PHILIP         LGT SNOW   7   4  87 N12       30.05R VSB 3/4 WCI  -8
PINE RIDGE     LGT SNOW   6   2  83 N13       29.93R FOG     WCI -10
SPEARFISH      LGT SNOW   1  -2  85 MISG      29.92S
WINNER         LGT SNOW  12   6  77 N21G31    29.95R WCI  -7
$$

SDZ004>011-016>023-039-040-191000-
NORTHEAST SOUTH DAKOTA

CITY           SKY/WX    TMP DP  RH WIND       PRES   REMARKS
ABERDEEN       CLOUDY    10   4  76 N21G33    30.01R WCI  -9
WATERTOWN      CLOUDY    10   6  84 N20       29.86R WCI  -9
BROOKINGS      FLURRIES  12   7  80 N21G28    29.85R WCI  -7
SISSETON         N/A     10   4  76 N24G36    29.96F WCI -10
$$

SDZ017-020-022-023-036>040-048>070-191000-
SOUTHEAST SOUTH DAKOTA

CITY           SKY/WX    TMP DP  RH WIND       PRES   REMARKS
SIOUX FALLS    CLOUDY    17  12  80 N16G24    29.84R WCI   2
HURON          CLOUDY    12   6  77 N21       29.99R WCI  -7
CHAMBERLAIN    LGT SNOW  12   9  87 NW17G25   29.98R WCI  -5
MITCHELL       CLOUDY    14   8  77 N28       29.90F WCI  -6
YANKTON        CLOUDY    19  14  81 N22G28    29.84R WCI   2
$$

ABBREVIATIONS USED IN REMARKS
   TC - TEMPERATURE IN CELSIUS
  WCI - WIND CHILL INDEX
   HX - HEAT INDEX
  VSB - VISIBILITY





USA.gov is the U.S. government's official web portal to all federal, state and local government web resources and services.